Location: Eaton Estates
(41.3089°N, 82.0057°W)
Time: 13:33:02
(UTC+00:00)

Nimbus 7 Rocket - Pass Details

Date: 17 June 2021
Orbit: 923 x 964 km, 99.4° (Epoch: 30 July)

Event Time Altitude Azimuth Distance (km) Brightness Sun altitude
Rises 05:13:18 0° 13° (NNE) 3,642 8.7 -25.2°
Reaches altitude 10° 05:15:45 10° 13° (NNE) 2,697 7.8 -25.2°
Maximum altitude 05:21:49 85° 287° (WNW) 972 4.4 -25.3°
Enters shadow 05:23:09 58° 205° (SSW) 1,118 4.4 -25.3°
